Pueblo, CO

6:35 AM MST on February 13, 2016 (GMT -0700)
Pueblo Memorial

Weather History for KPUB - February, 2014

Change the Weather History Date:

Wednesday, February 12, 2014

  Actual Average Record
Temperature  
Mean Temperature 34 °F 33 °F  
Max Temperature 44 °F 50 °F 76 °F (1962)
Min Temperature 24 °F 16 °F -27 °F (1899)
Degree Days  
Heating Degree Days 31 32  
Month to date heating degree days 569 396  
Since 1 July heating degree days 3854 3828  
Cooling Degree Days 0 0  
Month to date cooling degree days 0 0  
Year to date cooling degree days 0 0  
Moisture  
Dew Point 25 °F    
Average Humidity 66    
Maximum Humidity 92    
Minimum Humidity 40    
Precipitation  
Precipitation 0.00 in 0.01 in 0.40 in (1940)
Month to date precipitation 0.23 0.11  
Year to date precipitation 0.68 0.46  
Snow  
Snow 0.00 in 0.10 in 4.90 in (1940)
Month to date snowfall 5.0 1.8  
Since 1 July snowfall 18.7 19.8  
Snow Depth 0.00 in    
Sea Level Pressure  
Sea Level Pressure 30.03 in    
Wind  
Wind Speed 7 mph (East)    
Max Wind Speed 22 mph    
Max Gust Speed 27 mph    
Visibility 10 miles    
Events      
T = Trace of Precipitation, MM = Missing Value Source: NWS Daily Summary

Daily Weather History Graph

Daily Weather History Graph

Search for Another Location

Airport or City:

Trip Planner

Search our weather history database for the weather conditions in past years. The results will help you decide how hot, cold, wet, or windy it might be!

Date:

Astronomy

Feb. 12, 2014 Rise Set
Actual Time 6:51 AM MST 5:33 PM MST
Civil Twilight 6:24 AM MST 6:00 PM MST
Nautical Twilight 5:53 AM MST 6:31 PM MST
Astronomical Twilight 5:22 AM MST 7:02 PM MST
Moon 3:49 PM MST (2/12) 5:09 AM MST (2/12)
Length of Visible Light 11h 35m
Length of Day
10h 41m
Waxing Gibbous, 96% of the Moon is Illuminated
Feb 12
Waxing Gibbous
Feb 14
Full
Feb 22
Last Quarter
Mar 1
New
Mar 8
First Quarter

Hourly Weather History & Observations

Time (MST) Temp. Windchill Dew Point Humidity Pressure Visibility Wind Dir Wind Speed Gust Speed Precip Events Conditions
12:53 AM 35.1 °F 25.2 °F 19.9 °F 54% 30.09 in 10.0 mi NW 16.1 mph - N/A   Clear
1:53 AM 34.0 °F 26.6 °F 19.9 °F 56% 30.11 in 10.0 mi NNW 9.2 mph - N/A   Clear
2:53 AM 32.0 °F 26.4 °F 19.0 °F 59% 30.13 in 10.0 mi WNW 5.8 mph - N/A   Clear
3:53 AM 30.0 °F 18.7 °F 21.9 °F 72% 30.16 in 10.0 mi NNE 16.1 mph - N/A   Clear
4:53 AM 30.0 °F 19.5 °F 21.9 °F 72% 30.18 in 10.0 mi NNE 13.8 mph - N/A   Clear
5:53 AM 30.0 °F - 21.0 °F 69% 30.21 in 10.0 mi Calm Calm - N/A   Clear
6:53 AM 25.0 °F 19.3 °F 21.0 °F 85% 30.25 in 10.0 mi West 4.6 mph - N/A   Clear
7:53 AM 27.0 °F - 21.9 °F 81% 30.24 in 10.0 mi Calm Calm - N/A   Clear
8:53 AM 30.9 °F 27.5 °F 23.0 °F 72% 30.23 in 10.0 mi West 3.5 mph - N/A   Clear
9:53 AM 35.1 °F 27.9 °F 19.0 °F 52% 30.19 in 10.0 mi South 9.2 mph - N/A   Clear
10:53 AM 37.9 °F 30.9 °F 19.9 °F 48% 30.10 in 10.0 mi SE 10.4 mph - N/A   Clear
11:53 AM 39.9 °F 33.9 °F 21.9 °F 49% 30.03 in 10.0 mi SE 9.2 mph - N/A   Clear
12:53 PM 39.9 °F 32.9 °F 26.1 °F 58% 29.97 in 10.0 mi East 11.5 mph - N/A   Clear
1:53 PM 41.0 °F 36.4 °F 28.0 °F 60% 29.93 in 10.0 mi ESE 6.9 mph - N/A   Clear
2:53 PM 44.1 °F 39.0 °F 30.0 °F 58% 29.88 in 10.0 mi ESE 9.2 mph - N/A   Clear
3:53 PM 44.1 °F 39.0 °F 28.0 °F 53% 29.88 in 10.0 mi SE 9.2 mph - N/A   Clear
4:53 PM 44.1 °F 41.5 °F 30.0 °F 58% 29.87 in 10.0 mi SE 4.6 mph - N/A   Clear
5:53 PM 37.0 °F 33.3 °F 30.0 °F 76% 29.89 in 10.0 mi East 4.6 mph - N/A   Clear
6:53 PM 34.0 °F 28.0 °F 28.0 °F 79% 29.94 in 10.0 mi North 6.9 mph - N/A   Clear
7:53 PM 32.0 °F 24.8 °F 28.0 °F 85% 29.92 in 10.0 mi North 8.1 mph - N/A   Clear
8:53 PM 30.9 °F - 28.0 °F 89% 29.92 in 10.0 mi Calm Calm - N/A   Clear
9:53 PM 30.0 °F - 28.0 °F 92% 29.90 in 10.0 mi Calm Calm - N/A   Clear
10:53 PM 30.0 °F - 28.0 °F 92% 29.89 in 10.0 mi Calm Calm - N/A   Clear
11:53 PM 28.9 °F 21.9 °F 27.0 °F 92% 29.89 in 10.0 mi SSW 6.9 mph - N/A   Clear